Regional Weather Roundup
Issued by NWS Grand Forks, ND

Home | Current Version | Previous Version | Text Only | Print | Product List | Glossary Off
Versions: 1 2 3 4 5 6 7 8 9 10 11 12 13 14 15 16 17 18 19 20 21 22 23 24 25 26 27 28 29 30 31 32 33 34 35 36 37 38 39 40 41 42 43 44 45 46 47 48 49 50

000
ASUS43 KFGF 241631
RWRFGF
PRAIRIE TO PINES  WEATHER ROUNDUP
NATIONAL WEATHER SERVICE EASTERN NORTH DAKOTA/GRAND FORKS ND
1100 AM CDT THU JUL 24 2014

 **SATELLITE DATA USED TO AUGMENT SKY COVER AT AUTOMATED STATIONS**
 *****  WEATHER ACROSS EASTERN NORTH DAKOTA  *****

CITY           SKY/WX    TMP DP  RH WIND       PRES   REMARKS
GRAND FORKS    CLOUDY    71  60  68 SW3       30.06R
GRAND FRKS AFB CLOUDY    72  63  74 W8        30.11R
GRAND FRKS NWS   N/A     70 N/A N/A W7          N/A
DEVILS LAKE    CLOUDY    63  55  77 SE30G41   29.85F
FARGO          PTSUNNY   75  58  55 SE14      30.02F
WAHPETON ARPT  PTSUNNY   73  52  46 SE15G22   30.02F
$$

 ***** WEATHER ACROSS CENTRAL AND WESTERN NORTH DAKOTA  *****

CITY           SKY/WX    TMP DP  RH WIND       PRES   REMARKS
BISMARCK       PTSUNNY   70  61  73 E28G38    29.89F
MINOT          CLOUDY    69  62  78 SE12G21   29.85F
JAMESTOWN      LGT RAIN  63  60  90 SE10      30.03F
MINOT AFB      CLOUDY    68  65  91 SE14      29.85F
GARRISON         N/A     70  63  78 SE20G28   29.86F
WILLISTON      SUNNY     76  61  59 SE13G22   29.84F
DICKINSON      CLOUDY    67  60  78 E18       29.85F
HETTINGER      MOSUNNY   71  62  73 E15       29.86F
$$

 *****  OTHER AIRPORT OBSERVATIONS IN OUR AREA  *****

CITY           SKY/WX    TMP DP  RH WIND       PRES   REMARKS
WALHALLA         N/A     66  66 100 E10         N/A
GRAFTON AIRPOR PTSUNNY   66  61  82 SW7       30.07S
VALLEY CITY AR TSTM      64  64 100 W3        30.11R
CANDO          FAIR      63  59  88 SE21G36   29.81F
CAVALIER APRT  PTSUNNY   66  61  82 S7        30.05F
GWINNER        PTSUNNY   72  57  60 SE14G20   30.02R
SHEYENNE NWR     N/A     73  58  59 SE13      29.95
ROLLA          LGT RAIN  63  63 100 E13G18    29.90R
 ***** THE ABOVE OBSERVATIONS ARE NON NWS ARE NOT QUALITY
       CONTROLLED AND MAY MIS-REPORT RAIN FOR SNOW...
$$

  *****  WEATHER ACROSS NORTHERN MINNESOTA  *****

CITY           SKY/WX    TMP DP  RH WIND       PRES   REMARKS
FLAG ISLAND    SUNNY     68  59  73 S6        30.07S
WARROAD        MOSUNNY   70  61  73 S8        30.08S
ROSEAU         SUNNY     72  61  68 SW7       30.08S
HALLOCK        LGT RAIN  70  63  78 S7        30.06F
THF RVR FALLS  PTSUNNY   72  61  68 SW5       30.08S
BAUDETTE       MOSUNNY   71  57  61 S8        30.09F
WASKISH        MOSUNNY   73  61  64 SW6       30.09S
CROOKSTON      CLOUDY    72  61  68 S5        30.07S
$$
  *****  WEATHER ACROSS CENTRAL AND WEST MINNESOTA  *****

CITY           SKY/WX    TMP DP  RH WIND       PRES   REMARKS
FOSSTON        PTSUNNY   70  57  64 S8        30.08F
BEMIDJI        MOSUNNY   73  56  55 SW7       30.09S
PARK RAPIDS    PTSUNNY   72  56  57 S8        30.10F
ELBOW LAKE     FAIR      73  58  58 SE17      30.05F
WADENA         PTSUNNY   72  55  56 S10       30.08F
DETROIT LAKES  PTSUNNY   73  55  53 S10       30.07F
MOORHEAD       PTSUNNY   75  57  53 S13G20    30.03F
FERGUS FALLS   PTSUNNY   73  52  46 SE15      30.03F
MORRIS MN      PTSUNNY   75  59  57 SE13      30.06F
STAPLES        MOSUNNY   73  54  49 S8        30.09S
$$
  *****  WEATHER ELSEWHERE ACROSS MINNESOTA  *****

CITY           SKY/WX    TMP DP  RH WIND       PRES   REMARKS
DULUTH         MOSUNNY   71  56  58 SW6       30.12F
INTRNTL FALLS  CLOUDY    70  52  52 S7        30.10F
ELY            SUNNY     70  48  46 CALM      30.11F
CLOQUET        MOSUNNY   72  55  56 SE7       30.11F
WHEATON        PTSUNNY   72  57  60 SE17      30.03F
BRAINERD       SUNNY     73  52  47 S10       30.10F
HIBBING        MOSUNNY   74  55  51 VRB6      30.10F
ALEXANDRIA     MOSUNNY   73  53  49 SE14      30.10F
SAINT CLOUD    MOSUNNY   77  57  50 SE9       30.09F
MINNEAPOLIS    MOSUNNY   77  54  44 S6        30.12F
$$

  *****  WEATHER ACROSS SOUTH DAKOTA  *****

CITY           SKY/WX    TMP DP  RH WIND       PRES   REMARKS
SIOUX FALLS    CLOUDY    69  61  75 SE8       30.06F THUNDER
BROOKINGS      NOT AVBL
WATERTOWN      CLOUDY    68  59  73 SE17      30.03F
HURON          CLOUDY    71  63  75 E22G29    29.94F
SISSETON         N/A     72  58  61 S17G23    30.00F
ABERDEEN       CLOUDY    69  58  67 SE18      29.93F
MITCHELL       PTSUNNY   77  63  61 S16G25    29.96F
PIERRE         MOSUNNY   79  63  57 SE23G29   29.84S
MOBRIDGE       CLOUDY    75  63  66 SE20G25   29.85R
RAPID CITY     MOSUNNY   82  68  62 S9        29.82F
$$

  *****  SOME WEATHER IN NEARBY STATES *****

CITY           SKY/WX    TMP DP  RH WIND       PRES   REMARKS
GLASGOW MT     SUNNY     79  58  48 SE18      29.77F
GREAT FALLS MT SUNNY     69  52  54 SW7       29.92F
CHEYENNE WY    MOSUNNY   87  44  22 W24G36    30.16F
SCOTTSBLUFF NE PTSUNNY   85  63  47 CALM      29.98F
OMAHA NE       LGT RAIN  73  61  65 E9        30.17R
DES MOINES IA  CLOUDY    76  61  59 VRB3      30.18R
DAVENPORT IA   SUNNY     72  53  51 SE7       30.20R
CHICAGO IL     MOSUNNY   71  49  45 NE13      30.18R
EAU CLAIRE WI  MOSUNNY   75  52  44 S6        30.16R
LA CROSSE WI     N/A     74  59  59 SW5         N/A
$$

  *****  SOME NATIONAL WEATHER *****

CITY           SKY/WX    TMP DP  RH WIND       PRES   REMARKS
LA GUARDIA NY  PTSUNNY   76  60  57 N13       29.86S
RALEIGH NC     PTSUNNY   81  71  71 E5        29.92F
ATLANTA GA     MOSUNNY   83  71  67 W12       30.01F
NEW ORLEANS LA PTSUNNY   86  73  65 CALM      30.01S HX  93
OKLAHOMA CITY  SUNNY     85  70  60 SE8       30.09F
ALBUQUERQUE NM MOSUNNY   80  49  33 SW5       30.33F
SALT LAKE CITY PTSUNNY   83  44  25 N13       30.05R
LOS ANGELES CA MOSUNNY   76  62  62 CALM      29.86F
BOISE ID       SUNNY     63  38  39 NW12      30.23R
SEATTLE WA     CLOUDY    59  53  80 SW10      30.14R
$$

*** WEATHER ACROSS MANITOBA...SASKATCHEWAN AND ONTARIO ***
                ***ONTARIO***

CITY           SKY/WX    TMP DP  RH WIND       PRES   REMARKS
GERALDTON      PTSUNNY   72  52  49 NW8       30.02F
THUNDER BAY    MOSUNNY   72  54  53 SW8       30.10F
SIOUX LOOKOUT  MOSUNNY   72  52  49 SW6       30.09F
TORONTO        PTSUNNY   70  46  43 N13       30.08F
BIG TROUT LK   SUNNY     68  52  56 W3        29.92F
PICKLE LAKE    PTSUNNY   72  48  43 W14G20    30.02F
DRYDEN         SUNNY     72  48  43 VRB5      30.09F
KENORA         PTSUNNY   68  52  56 S10       30.11F
$$
                *** MANITOBA***

CITY           SKY/WX    TMP DP  RH WIND       PRES   REMARKS
BRANDON        CLOUDY    66  61  82 E14       29.89F
DAUPHIN        CLOUDY    66  59  77 E13       29.91F
ISLAND LAKE    MOSUNNY   73  55  53 W7        29.98F
PILOT MOUND      N/A     66  59  77 SE14G21     N/A
THE PAS        MOSUNNY   73  57  56 SE18      29.93F
THOMPSON       SUNNY     75  59  57 W3        29.95F
WINNIPEG       PTSUNNY   70  54  56 S13       30.05F
LYNN LAKE      SUNNY     77  52  41 SE6       29.95F
CHURCHILL      MOSUNNY   63  52  67 NE12      29.92F
GILLAM         CLOUDY    68  57  68 NW2       29.91F
$$
                ***SASKATCHEWAN***

CITY           SKY/WX    TMP DP  RH WIND       PRES   REMARKS
ESTEVAN        PTSUNNY   68  63  83 S13       29.84R
KINDERSLEY     MOSUNNY   72  61  68 E6        29.78
LLOYDMINSTER   PTSUNNY   70  61  73 S15       29.70F
PRINCE ALBERT  CLOUDY    68  61  77 SE14G22   29.76F
REGINA         MOSUNNY   70  63  78 S12G18    29.82R
YORKTON        SUNNY     68  59  73 SE13G20   29.85F
N. BATTLEFORD  CLOUDY    68  64  88 SE10      29.78S
LA RONGE       PTSUNNY   70  59  68 E15G21    29.83F
SASKATOON      CLOUDY    66  63  88 SE10      29.77R
SWIFT CURRENT  PTSUNNY   75  61  60 S8        29.80S
$$
NOTE: THESE ARE AUTOMATED STATIONS WITH LIMITED QUALITY CONTROL
      "FAIR" INDICATES FEW OR NO CLOUDS BELOW 12,000 FEET WITH NO
      SIGNIFICANT WEATHER AND/OR OBSTRUCTIONS TO VISIBILITY.
      SKY/WX - SKY CONDITION AND SIGNIFICANT WEATHER.
      TMP - AIR TEMPERATURE.    DP   - DEWPOINT TEMPERATURE.
      RH  - RELATIVE HUMIDITY.  PRES - PRESSURE.
      HX  - HEAT INDEX.         WCI  - WIND CHILL INDEX.
$



USA.gov is the U.S. government's official web portal to all federal, state and local government web resources and services.